This is the latest recevied weather packets stored in our database for station/object NL3D. If no packets are shown the sender has not sent any weather packets the latest 10 day(s).
| Time | Temp. | Humidity | Pressure | Rain* | Wind** | Luminosity | Snow |
|---|---|---|---|---|---|---|---|
| 1777484353 | 7.22° C | 43% | 1019.5 hPa | 0 mm | - | 305 W/m² | - |
| 1777484048 | 7.22° C | 46% | 1019.7 hPa | 0 mm | - | 298 W/m² | - |
| 1777483745 | 6.67° C | 45% | 1019.7 hPa | 0 mm | - | 298 W/m² | - |
| 1777483441 | 7.22° C | 45% | 1019.8 hPa | 0 mm | - | 78 W/m² | - |
| 1777483136 | 7.22° C | 45% | 1019.8 hPa | 0 mm | - | 257 W/m² | - |
| 1777482834 | 7.22° C | 45% | 1019.7 hPa | 0 mm | - | 254 W/m² | - |
| 1777482529 | 7.78° C | 45% | 1019.9 hPa | 0 mm | - | 245 W/m² | - |
| 1777482227 | 7.78° C | 44% | 1019.9 hPa | 0 mm | - | 235 W/m² | - |
| 1777481924 | 7.78° C | 46% | 1019.9 hPa | 0 mm | - | 223 W/m² | - |
| 1777481622 | 7.22° C | 46% | 1020 hPa | 0 mm | - | 208 W/m² | - |
| 1777481319 | 7.22° C | 46% | 1019.8 hPa | 0 mm | - | 193 W/m² | - |
| 1777481015 | 7.22° C | 46% | 1020 hPa | 0 mm | - | 179 W/m² | - |
| 1777480712 | 6.67° C | 47% | 1020.1 hPa | 0 mm | - | 167 W/m² | - |
| 1777480409 | 6.67° C | 47% | 1020 hPa | 0 mm | - | 155 W/m² | - |
| 1777480104 | 6.67° C | 49% | 1020 hPa | 0 mm | - | 143 W/m² | - |
| 1777479801 | 6.11° C | 50% | 1019.9 hPa | 0 mm | - | 97 W/m² | - |
| 1777479499 | 6.67° C | 49% | 1020 hPa | 0 mm | - | 112 W/m² | - |
| 1777479195 | 6.11° C | 50% | 1020.1 hPa | 0 mm | - | 114 W/m² | - |
| 1777478892 | 6.11° C | 50% | 1020 hPa | 0 mm | - | 106 W/m² | - |
| 1777478588 | 5.56° C | 52% | 1020 hPa | 0 mm | - | 99 W/m² | - |
| 1777478285 | 5.56° C | 53% | 1019.8 hPa | 0 mm | - | 92 W/m² | - |
| 1777477982 | 5° C | 55% | 1019.9 hPa | 0 mm | - | 87 W/m² | - |
| 1777477677 | 4.44° C | 55% | 1020 hPa | 0 mm | - | 36 W/m² | - |
| 1777477374 | 4.44° C | 55% | 1020 hPa | 0 mm | - | 34 W/m² | - |
| 1777477071 | 4.44° C | 55% | 1020 hPa | 0 mm | - | 39 W/m² | - |
* Rain latest hour (hover to see other rain measurements)
** Current wind speed in m/s (hover to see current wind gust speed)